This is the latest recevied weather packets stored in our database for station/object WX5KDM. If no packets are shown the sender has not sent any weather packets the latest 10 day(s).
| Time | Temp. | Humidity | Pressure | Rain* | Wind** | Luminosity | Snow |
|---|---|---|---|---|---|---|---|
| 1778275587 | 22.78° C | 52% | 1013.4 hPa | 0 mm | - | - | - |
| 1778275283 | 22.78° C | 52% | 1013.3 hPa | 0 mm | - | - | - |
| 1778274978 | 23.33° C | 48% | 1013.6 hPa | 0 mm | - | - | - |
| 1778274675 | 22.78° C | 49% | 1013.5 hPa | 0 mm | - | - | - |
| 1778274372 | 22.78° C | 51% | 1013.6 hPa | 0 mm | - | - | - |
| 1778274070 | 22.78° C | 50% | 1013.4 hPa | 0 mm | - | - | - |
| 1778273767 | 22.78° C | 55% | 1013.5 hPa | 0 mm | - | - | - |
| 1778273463 | 22.78° C | 52% | 1013.8 hPa | 0 mm | - | - | - |
| 1778273159 | 22.22° C | 53% | 1013.9 hPa | 0 mm | - | - | - |
| 1778272855 | 22.78° C | 52% | 1013.7 hPa | 0 mm | - | - | - |
| 1778272551 | 22.78° C | 52% | 1013.5 hPa | 0 mm | - | - | - |
| 1778272247 | 22.22° C | 54% | 1013.8 hPa | 0 mm | - | - | - |
| 1778271944 | 22.78° C | 53% | 1013.7 hPa | 0 mm | - | - | - |
| 1778271642 | 22.78° C | 51% | 1013.5 hPa | 0 mm | - | - | - |
| 1778271338 | 22.78° C | 50% | 1013.5 hPa | 0 mm | - | - | - |
| 1778271035 | 22.78° C | 50% | 1013.7 hPa | 0 mm | - | - | - |
| 1778270732 | 23.89° C | 49% | 1013.9 hPa | 0 mm | - | - | - |
| 1778270427 | 23.33° C | 50% | 1013.9 hPa | 0 mm | - | - | - |
| 1778270124 | 22.78° C | 52% | 1014 hPa | 0 mm | - | - | - |
| 1778269820 | 22.22° C | 51% | 1013.7 hPa | 0 mm | - | - | - |
| 1778269518 | 22.78° C | 50% | 1014.1 hPa | 0 mm | - | - | - |
| 1778269215 | 22.78° C | 51% | 1014.2 hPa | 0 mm | - | - | - |
| 1778268911 | 22.78° C | 50% | 1014.3 hPa | 0 mm | - | - | - |
| 1778268608 | 22.78° C | 49% | 1014.2 hPa | 0 mm | - | - | - |
| 1778268304 | 23.33° C | 50% | 1014.1 hPa | 0 mm | - | - | - |
* Rain latest hour (hover to see other rain measurements)
** Current wind speed in m/s (hover to see current wind gust speed)